�������l�o���
Date,Time,MP-1(��Sv/h),MP-2(��Sv/h),MP-3(��Sv/h),MP-4(��Sv/h),MP-5(��Sv/h),MP-6(��Sv/h),MP-7(��Sv/h),MP-8(��Sv/h),����,����(m/s),���J
2022/07/09,00:00,0.562,0.807,0.520,0.979,0.694,0.333,0.577,0.550,�k�k��,7.1,�L
2022/07/09,00:10,0.561,0.806,0.520,0.977,0.693,0.332,0.579,0.550,�k,8.9,�L
2022/07/09,00:20,0.560,0.806,0.519,0.976,0.693,0.332,0.578,0.547,�k�k��,7.5,�L
2022/07/09,00:30,0.559,0.805,0.520,0.974,0.691,0.331,0.577,0.549,�k,7.1,�L
2022/07/09,00:40,0.559,0.806,0.519,0.974,0.690,0.333,0.575,0.547,�k�k��,8.1,�L
2022/07/09,00:50,0.558,0.803,0.520,0.973,0.691,0.333,0.575,0.547,�k�k��,8.1,�L
2022/07/09,01:00,0.559,0.803,0.519,0.975,0.689,0.332,0.575,0.549,�k,6.7,�L
2022/07/09,01:10,0.561,0.803,0.520,0.976,0.690,0.332,0.577,0.547,�k,6.8,�L
2022/07/09,01:20,0.559,0.801,0.519,0.976,0.691,0.332,0.577,0.547,�k,6.0,�L
2022/07/09,01:30,0.559,0.803,0.519,0.973,0.691,0.333,0.574,0.547,�k�k��,6.2,�L
2022/07/09,01:40,0.557,0.802,0.518,0.975,0.688,0.333,0.576,0.547,�k�k��,6.9,�L
2022/07/09,01:50,0.559,0.804,0.520,0.975,0.688,0.333,0.575,0.549,�k�k��,6.7,�L
2022/07/09,02:00,0.558,0.802,0.519,0.975,0.691,0.332,0.575,0.547,�k�k��,6.6,�L
2022/07/09,02:10,0.560,0.804,0.518,0.975,0.688,0.334,0.576,0.548,�k�k��,7.5,�L
2022/07/09,02:20,0.560,0.804,0.520,0.976,0.691,0.332,0.576,0.548,�k�k��,6.3,�L
2022/07/09,02:30,0.557,0.801,0.518,0.973,0.688,0.332,0.575,0.548,�k�k��,7.5,�L
2022/07/09,02:40,0.557,0.800,0.519,0.973,0.687,0.331,0.576,0.547,�k�k��,7.3,�L
2022/07/09,02:50,0.558,0.803,0.520,0.974,0.688,0.333,0.575,0.548,�k�k��,6.6,�L
2022/07/09,03:00,0.559,0.804,0.518,0.976,0.688,0.330,0.576,0.548,�k�k��,6.8,�L
2022/07/09,03:10,0.558,0.803,0.520,0.974,0.691,0.332,0.576,0.546,�k�k��,7.1,�L
2022/07/09,03:20,0.558,0.804,0.519,0.975,0.691,0.333,0.575,0.547,�k�k��,8.1,�L
2022/07/09,03:30,0.559,0.804,0.518,0.976,0.689,0.333,0.576,0.548,�k�k��,6.8,�L
2022/07/09,03:40,0.558,0.803,0.517,0.976,0.690,0.333,0.577,0.547,�k�k��,7.5,�L
2022/07/09,03:50,0.557,0.802,0.518,0.976,0.687,0.333,0.576,0.547,�k�k��,7.6,�L
2022/07/09,04:00,0.557,0.802,0.518,0.977,0.686,0.333,0.575,0.548,�k�k��,6.7,�L
2022/07/09,04:10,0.559,0.804,0.518,0.976,0.687,0.333,0.575,0.547,�k,8.1,�L
2022/07/09,04:20,0.558,0.804,0.520,0.976,0.689,0.333,0.574,0.548,�k�k��,8.2,�L
2022/07/09,04:30,0.560,0.804,0.519,0.978,0.689,0.333,0.576,0.549,�k�k��,8.6,�L
2022/07/09,04:40,0.557,0.805,0.520,0.977,0.689,0.333,0.576,0.548,�k�k��,7.1,�L
2022/07/09,04:50,0.558,0.801,0.519,0.978,0.690,0.333,0.577,0.548,�k�k��,7.2,�L
2022/07/09,05:00,0.560,0.804,0.519,0.982,0.690,0.333,0.575,0.549,�k�k��,7.4,�L
2022/07/09,05:10,0.558,0.804,0.517,0.981,0.692,0.333,0.577,0.547,�k�k��,7.9,�L
2022/07/09,05:20,0.560,0.806,0.520,0.981,0.692,0.334,0.577,0.548,�k�k��,8.2,�L
2022/07/09,05:30,0.561,0.806,0.518,0.981,0.691,0.335,0.577,0.547,�k�k��,8.2,�L
2022/07/09,05:40,0.561,0.806,0.520,0.982,0.692,0.333,0.577,0.548,�k�k��,7.0,�L
2022/07/09,05:50,0.560,0.808,0.519,0.983,0.691,0.336,0.578,0.549,�k�k��,8.7,��
2022/07/09,06:00,0.561,0.808,0.521,0.984,0.694,0.334,0.577,0.550,�k�k��,8.7,��
2022/07/09,06:10,0.561,0.808,0.521,0.984,0.695,0.334,0.578,0.549,�k�k��,8.8,��
2022/07/09,06:20,0.562,0.811,0.522,0.986,0.694,0.335,0.577,0.549,�k�k��,8.0,��
2022/07/09,06:30,0.563,0.811,0.522,0.986,0.696,0.335,0.577,0.549,�k�k��,8.1,�L
2022/07/09,06:40,0.562,0.808,0.523,0.986,0.696,0.335,0.579,0.548,�k�k��,7.3,�L
2022/07/09,06:50,0.562,0.809,0.523,0.988,0.695,0.334,0.577,0.549,�k�k��,7.4,�L
2022/07/09,07:00,0.562,0.810,0.521,0.990,0.696,0.334,0.577,0.550,�k�k��,7.8,�L
2022/07/09,07:10,0.562,0.809,0.522,0.989,0.696,0.334,0.579,0.549,�k�k��,7.6,�L
2022/07/09,07:20,0.561,0.810,0.522,0.988,0.694,0.335,0.578,0.549,�k,7.0,�L
2022/07/09,07:30,0.561,0.809,0.523,0.988,0.696,0.334,0.579,0.551,�k�k��,8.7,�L
2022/07/09,07:40,0.562,0.810,0.523,0.987,0.696,0.334,0.579,0.550,�k�k��,7.9,��
2022/07/09,07:50,0.561,0.808,0.523,0.989,0.695,0.336,0.578,0.552,�k�k��,8.0,�L
2022/07/09,08:00,0.564,0.813,0.524,0.990,0.697,0.335,0.579,0.550,�k�k��,7.2,�L
2022/07/09,08:10,0.563,0.813,0.521,0.990,0.697,0.334,0.577,0.550,�k�k��,6.5,�L
2022/07/09,08:20,0.563,0.811,0.523,0.987,0.697,0.335,0.578,0.549,�k�k��,7.2,�L
2022/07/09,08:30,0.564,0.814,0.523,0.992,0.698,0.335,0.579,0.550,�k�k��,6.6,�L
2022/07/09,08:40,0.564,0.815,0.525,0.990,0.699,0.335,0.580,0.551,�k�k��,6.1,�L
2022/07/09,08:50,0.564,0.814,0.524,0.990,0.701,0.335,0.581,0.551,�k�k��,6.7,�L
2022/07/09,09:00,0.564,0.815,0.525,0.993,0.697,0.335,0.581,0.550,�k�k��,6.6,�L
2022/07/09,09:10,0.565,0.815,0.525,0.993,0.700,0.336,0.579,0.550,�k�k��,7.3,�L
2022/07/09,09:20,0.563,0.812,0.525,0.991,0.699,0.336,0.582,0.552,�k�k��,5.8,�L
2022/07/09,09:30,0.564,0.812,0.524,0.991,0.698,0.335,0.579,0.549,�k�k��,7.0,�L
2022/07/09,09:40,0.563,0.815,0.525,0.992,0.700,0.336,0.580,0.549,�k,6.4,�L
2022/07/09,09:50,0.562,0.814,0.523,0.994,0.699,0.336,0.581,0.550,�k,6.7,��
2022/07/09,10:00,0.563,0.816,0.524,0.991,0.699,0.336,0.580,0.551,�k�k��,9.0,�L
2022/07/09,10:10,0.565,0.815,0.526,0.993,0.701,0.337,0.582,0.552,�k�k��,7.5,�L
2022/07/09,10:20,0.565,0.814,0.525,0.992,0.701,0.336,0.582,0.550,�k�k��,7.6,�L
2022/07/09,10:30,0.565,0.815,0.526,0.995,0.702,0.336,0.580,0.551,�k�k��,7.9,�L
2022/07/09,10:40,0.565,0.818,0.525,0.994,0.702,0.336,0.582,0.551,�k�k��,6.5,�L
2022/07/09,10:50,0.566,0.816,0.527,0.996,0.701,0.336,0.581,0.553,�k,6.0,�L
2022/07/09,11:00,0.565,0.816,0.525,0.994,0.703,0.337,0.581,0.551,�k�k��,6.5,�L
2022/07/09,11:10,0.568,0.816,0.525,0.994,0.702,0.337,0.583,0.551,�k�k��,6.9,�L
2022/07/09,11:20,0.567,0.817,0.527,0.992,0.700,0.338,0.581,0.552,�k,6.0,�L
2022/07/09,11:30,0.566,0.816,0.525,0.994,0.703,0.337,0.581,0.550,�k�k��,6.2,�L
2022/07/09,11:40,0.564,0.814,0.524,0.991,0.701,0.336,0.580,0.551,�k�k��,7.6,�L
2022/07/09,11:50,0.566,0.812,0.525,0.991,0.700,0.337,0.580,0.551,�k�k��,7.1,�L
2022/07/09,12:00,0.565,0.812,0.523,0.989,0.700,0.336,0.581,0.551,�k�k��,7.8,�L
2022/07/09,12:10,0.567,0.814,0.523,0.990,0.700,0.337,0.581,0.550,�k,7.1,�L
2022/07/09,12:20,0.566,0.812,0.523,0.991,0.698,0.336,0.580,0.551,�k,6.8,�L
2022/07/09,12:30,0.562,0.812,0.522,0.988,0.695,0.337,0.578,0.549,�k�k��,5.6,�L
2022/07/09,12:40,0.562,0.808,0.522,0.989,0.695,0.335,0.578,0.549,�k�k��,6.8,�L
2022/07/09,12:50,0.561,0.806,0.520,0.978,0.688,0.335,0.576,0.548,�k�k��,7.0,�L
2022/07/09,13:00,0.560,0.803,0.521,0.978,0.690,0.333,0.576,0.548,�k�k��,6.2,�L
2022/07/09,13:10,0.559,0.805,0.519,0.977,0.688,0.334,0.576,0.547,�k�k��,6.7,�L
2022/07/09,13:20,0.559,0.802,0.518,0.978,0.690,0.335,0.575,0.547,�k�k��,7.1,�L
2022/07/09,13:30,0.558,0.799,0.519,0.973,0.689,0.334,0.576,0.546,�k�k��,5.8,�L
2022/07/09,13:40,0.559,0.801,0.518,0.973,0.688,0.333,0.575,0.547,�k,6.4,�L
2022/07/09,13:50,0.559,0.803,0.519,0.975,0.686,0.334,0.577,0.547,�k,7.4,�L
2022/07/09,14:00,0.559,0.803,0.518,0.975,0.689,0.335,0.577,0.547,�k,6.1,�L
2022/07/09,14:10,0.559,0.805,0.519,0.977,0.690,0.335,0.576,0.546,�k,5.3,�L
2022/07/09,14:20,0.559,0.804,0.520,0.979,0.690,0.335,0.577,0.547,�k,5.0,�L
2022/07/09,14:30,0.560,0.804,0.518,0.978,0.690,0.336,0.575,0.547,�k�k��,5.3,�L
2022/07/09,14:40,0.559,0.803,0.518,0.977,0.689,0.334,0.575,0.547,�k,6.5,�L
2022/07/09,14:50,0.561,0.804,0.519,0.978,0.692,0.333,0.575,0.547,�k�k��,5.8,�L
2022/07/09,15:00,0.558,0.803,0.518,0.978,0.690,0.335,0.575,0.547,�k,5.7,�L
2022/07/09,15:10,0.560,0.803,0.519,0.979,0.692,0.334,0.577,0.547,�k,6.2,�L
2022/07/09,15:20,0.560,0.805,0.519,0.978,0.691,0.334,0.576,0.547,�k,6.5,�L
2022/07/09,15:30,0.560,0.805,0.520,0.978,0.692,0.335,0.576,0.547,�k,6.5,�L
2022/07/09,15:40,0.561,0.806,0.518,0.975,0.690,0.334,0.576,0.548,�k�k��,6.1,�L
2022/07/09,15:50,0.561,0.804,0.518,0.980,0.693,0.336,0.576,0.548,�k,6.1,�L
2022/07/09,16:00,0.561,0.805,0.521,0.979,0.691,0.335,0.577,0.547,�k,5.6,�L
2022/07/09,16:10,0.559,0.805,0.519,0.980,0.691,0.334,0.577,0.549,�k,6.9,�L
2022/07/09,16:20,0.561,0.807,0.520,0.980,0.692,0.334,0.578,0.549,�k,7.1,�L
2022/07/09,16:30,0.559,0.807,0.520,0.981,0.692,0.335,0.579,0.548,�k,7.3,��
2022/07/09,16:40,0.561,0.810,0.519,0.980,0.695,0.335,0.578,0.548,�k,6.0,�L
2022/07/09,16:50,0.561,0.808,0.520,0.983,0.692,0.335,0.578,0.549,�k,6.3,�L
2022/07/09,17:00,0.559,0.806,0.521,0.982,0.694,0.333,0.578,0.548,�k,6.9,�L
2022/07/09,17:10,0.559,0.810,0.521,0.984,0.694,0.333,0.578,0.548,�k,6.9,�L
2022/07/09,17:20,0.559,0.806,0.519,0.981,0.695,0.334,0.578,0.548,�k,6.6,�L
2022/07/09,17:30,0.558,0.809,0.520,0.984,0.695,0.333,0.577,0.549,�k,6.2,�L
2022/07/09,17:40,0.559,0.806,0.521,0.984,0.693,0.334,0.579,0.548,�k,5.8,�L
2022/07/09,17:50,0.559,0.807,0.519,0.984,0.693,0.335,0.575,0.548,�k,5.3,�L
2022/07/09,18:00,0.560,0.808,0.520,0.984,0.694,0.335,0.578,0.550,�k,4.2,�L
2022/07/09,18:10,0.559,0.806,0.519,0.983,0.694,0.335,0.577,0.548,�k,4.1,��
2022/07/09,18:20,0.558,0.809,0.521,0.984,0.695,0.335,0.578,0.547,�k�k��,3.4,��
2022/07/09,18:30,0.559,0.809,0.522,0.985,0.695,0.334,0.577,0.550,�k�k��,2.8,��
2022/07/09,18:40,0.561,0.809,0.521,0.984,0.694,0.334,0.578,0.548,�k�k��,3.5,��
2022/07/09,18:50,0.560,0.808,0.522,0.987,0.695,0.334,0.578,0.548,�k�k��,3.1,��
2022/07/09,19:00,0.562,0.810,0.521,0.987,0.694,0.335,0.578,0.549,�k��,2.6,��
2022/07/09,19:10,0.561,0.811,0.520,0.986,0.695,0.334,0.579,0.548,�k��,1.9,��
2022/07/09,19:20,0.560,0.812,0.522,0.987,0.697,0.335,0.577,0.549,�k�k��,2.6,��
2022/07/09,19:30,0.561,0.809,0.524,0.988,0.697,0.336,0.577,0.549,�k��,2.3,��
2022/07/09,19:40,0.560,0.810,0.523,0.985,0.695,0.336,0.577,0.549,�k��,2.0,��
2022/07/09,19:50,0.560,0.812,0.522,0.987,0.696,0.335,0.578,0.549,�k�k��,2.3,��
2022/07/09,20:00,0.562,0.813,0.523,0.989,0.696,0.336,0.578,0.548,�k�k��,3.0,��
2022/07/09,20:10,0.563,0.813,0.523,0.986,0.700,0.336,0.578,0.550,�k�k��,3.3,��
2022/07/09,20:20,0.562,0.813,0.523,0.987,0.696,0.336,0.580,0.550,�k,3.3,��
2022/07/09,20:30,0.562,0.811,0.523,0.989,0.697,0.335,0.580,0.549,�k,3.0,��
2022/07/09,20:40,0.562,0.815,0.523,0.987,0.698,0.336,0.580,0.550,�k�k��,2.3,��
2022/07/09,20:50,0.562,0.812,0.523,0.989,0.699,0.336,0.579,0.550,�k�k��,1.7,��
2022/07/09,21:00,0.561,0.813,0.524,0.986,0.700,0.335,0.579,0.550,�k�k��,0.9,��
2022/07/09,21:10,0.562,0.811,0.523,0.987,0.697,0.336,0.578,0.550,�쐼,1.1,��
2022/07/09,21:20,0.561,0.813,0.524,0.987,0.699,0.337,0.579,0.549,�쐼,1.2,��
2022/07/09,21:30,0.562,0.813,0.523,0.989,0.700,0.336,0.580,0.549,���쐼,1.2,��
2022/07/09,21:40,0.562,0.812,0.523,0.989,0.698,0.336,0.580,0.550,���쐼,1.5,��
2022/07/09,21:50,0.562,0.813,0.524,0.988,0.699,0.335,0.579,0.551,��쐼,1.1,��
2022/07/09,22:00,0.564,0.813,0.526,0.987,0.697,0.336,0.579,0.549,��,0.9,��
2022/07/09,22:10,0.564,0.813,0.524,0.987,0.700,0.335,0.580,0.550,��쓌,1.4,��
2022/07/09,22:20,0.563,0.816,0.525,0.990,0.700,0.335,0.581,0.549,��쓌,1.7,��
2022/07/09,22:30,0.562,0.816,0.524,0.988,0.699,0.336,0.581,0.551,��,2.3,��
2022/07/09,22:40,0.563,0.816,0.525,0.989,0.698,0.338,0.580,0.550,��쓌,2.3,��
2022/07/09,22:50,0.564,0.815,0.525,0.987,0.699,0.335,0.581,0.551,��쓌,2.3,��
2022/07/09,23:00,0.562,0.814,0.523,0.987,0.698,0.336,0.581,0.550,��쓌,2.0,��
2022/07/09,23:10,0.565,0.813,0.524,0.988,0.698,0.335,0.580,0.551,��,1.7,��
2022/07/09,23:20,0.564,0.813,0.526,0.988,0.698,0.337,0.582,0.550,��,3.0,�L
2022/07/09,23:30,0.562,0.813,0.524,0.989,0.698,0.336,0.580,0.549,��,3.4,��
2022/07/09,23:40,0.564,0.814,0.523,0.990,0.701,0.335,0.581,0.550,��쓌,2.8,��
2022/07/09,23:50,0.563,0.815,0.524,0.989,0.700,0.336,0.579,0.550,��쓌,3.3,��
